Weather History for Windom, MN

Change the Weather History Date:

Friday, November 2, 2012

  Actual Average Record
Temperature  
Mean Temperature 32 °F -  
Max Temperature 39 °F 48 °F 76 °F (1978)
Min Temperature 26 °F 30 °F 5 °F (1951)
Degree Days  
Heating Degree Days 32    
Moisture  
Dew Point 26 °F    
Average Humidity 76    
Maximum Humidity 93    
Minimum Humidity 65    
Precipitation  
Precipitation 0.00 in - - ()
Sea Level Pressure  
Sea Level Pressure 30.07 in    
Wind  
Wind Speed 7 mph (ENE)    
Max Wind Speed 12 mph    
Max Gust Speed -    
Visibility 10 miles    
Events      
Averages and records for this station are not official NWS values.
T = Trace of Precipitation, MM = Missing Value Source: NWS Daily Summary

Daily Weather History Graph

Daily Weather History Graph

Search for Another Location

Airport:

Trip Planner

Search our weather history database for the weather conditions in past years. The results will help you decide how hot, cold, wet, or windy it might be!

Date:

Astronomy

Nov. 02, 2012 Rise Set
Actual Time 7:58 AM CDT 6:08 PM CDT
Civil Twilight 7:28 AM CDT 6:38 PM CDT
Nautical Twilight 6:54 AM CDT 7:12 PM CDT
Astronomical Twilight 6:20 AM CDT 7:46 PM CDT
Moon 8:52 PM CDT (11/2) 11:24 AM CDT (11/2)
Length of Visible Light 11h 10m
Length of Day
10h 09m
Waning Gibbous, 87% of the Moon is Illuminated
Nov 2
Waning Gibbous
Nov 6
Last Quarter
Nov 13
New
Nov 20
First Quarter
Nov 28
Full

Hourly Weather History & Observations

Time (CDT) Temp. Windchill Dew Point Humidity Pressure Visibility Wind Dir Wind Speed Gust Speed Precip Events Conditions
12:13 AM 30.2 °F 24.3 °F 24.8 °F 80% 30.03 in 10.0 mi NNE 5.8 mph - N/A   Clear
12:32 AM 30.2 °F 25.4 °F 24.8 °F 80% 30.04 in 10.0 mi NNE 4.6 mph - N/A   Clear
12:52 AM 30.2 °F 25.4 °F 24.8 °F 80% 30.03 in 10.0 mi NE 4.6 mph - N/A   Clear
1:12 AM 28.4 °F 22.2 °F 23.0 °F 80% 30.05 in 10.0 mi NNE 5.8 mph - N/A   Clear
1:32 AM 28.4 °F 22.2 °F 23.0 °F 80% 30.04 in 10.0 mi NE 5.8 mph - N/A   Clear
1:52 AM 28.4 °F 21.2 °F 23.0 °F 80% 30.04 in 10.0 mi NE 6.9 mph - N/A   Clear
2:12 AM 28.4 °F 23.3 °F 24.8 °F 86% 30.03 in 10.0 mi NE 4.6 mph - N/A   Clear
2:33 AM 28.4 °F 23.3 °F 24.8 °F 86% 30.04 in 10.0 mi NE 4.6 mph - N/A   Clear
2:52 AM 28.4 °F 24.6 °F 24.8 °F 86% 30.04 in 10.0 mi NE 3.5 mph - N/A   Clear
3:12 AM 28.4 °F 23.3 °F 24.8 °F 86% 30.04 in 10.0 mi NE 4.6 mph - N/A   Clear
3:33 AM 28.4 °F 22.2 °F 24.8 °F 86% 30.03 in 10.0 mi ENE 5.8 mph - N/A   Clear
3:53 AM 28.4 °F 23.3 °F 24.8 °F 86% 30.03 in 10.0 mi ENE 4.6 mph - N/A   Clear
4:12 AM 28.4 °F 22.2 °F 24.8 °F 86% 30.03 in 10.0 mi ENE 5.8 mph - N/A   Clear
4:33 AM 28.4 °F 21.2 °F 24.8 °F 86% 30.02 in 10.0 mi ENE 6.9 mph - N/A   Clear
4:53 AM 28.4 °F 20.4 °F 23.0 °F 80% 30.03 in 10.0 mi ENE 8.1 mph - N/A   Clear
5:12 AM 28.4 °F 21.2 °F 23.0 °F 80% 30.03 in 10.0 mi ENE 6.9 mph - N/A   Clear
5:33 AM 26.6 °F 21.2 °F 23.0 °F 86% 30.02 in 10.0 mi ENE 4.6 mph - N/A   Clear
5:52 AM 26.6 °F 20.0 °F 23.0 °F 86% 30.03 in 10.0 mi ENE 5.8 mph - N/A   Clear
6:12 AM 26.6 °F 20.0 °F 24.8 °F 93% 30.03 in 10.0 mi East 5.8 mph - N/A   Clear
6:33 AM 26.6 °F 19.1 °F 23.0 °F 86% 30.04 in 10.0 mi East 6.9 mph - N/A   Clear
6:52 AM 26.6 °F 19.1 °F 23.0 °F 86% 30.04 in 10.0 mi East 6.9 mph - N/A   Clear
7:12 AM 26.6 °F 19.1 °F 24.8 °F 93% 30.04 in 10.0 mi East 6.9 mph - N/A   Clear
7:33 AM 28.4 °F 22.2 °F 24.8 °F 86% 30.04 in 10.0 mi East 5.8 mph - N/A   Clear
7:52 AM 28.4 °F 21.2 °F 24.8 °F 86% 30.05 in 10.0 mi East 6.9 mph - N/A   Clear
8:12 AM 28.4 °F 19.7 °F 24.8 °F 86% 30.06 in 10.0 mi East 9.2 mph - N/A   Clear
8:53 AM 28.4 °F 19.1 °F 24.8 °F 86% 30.07 in 10.0 mi East 10.4 mph - N/A   Clear
9:12 AM 30.2 °F 21.9 °F 24.8 °F 80% 30.07 in 10.0 mi East 9.2 mph - N/A   Clear
9:33 AM 30.2 °F 21.3 °F 24.8 °F 80% 30.06 in 10.0 mi East 10.4 mph - N/A   Clear
9:52 AM 30.2 °F 21.3 °F 24.8 °F 80% 30.07 in 10.0 mi East 10.4 mph - N/A   Clear
10:12 AM 32.0 °F 23.0 °F 26.6 °F 80% 30.06 in 10.0 mi East 11.5 mph - N/A   Clear
10:33 AM 32.0 °F 24.8 °F 26.6 °F 80% 30.08 in 10.0 mi East 8.1 mph - N/A   Clear
10:52 AM 33.8 °F 27.7 °F 26.6 °F 75% 30.10 in 10.0 mi East 6.9 mph - N/A   Clear
11:12 AM 33.8 °F 26.4 °F 26.6 °F 75% 30.08 in 10.0 mi East 9.2 mph - N/A   Clear
11:33 AM 35.6 °F 29.2 °F 26.6 °F 70% 30.10 in 10.0 mi East 8.1 mph - N/A   Clear
11:52 AM 35.6 °F 31.7 °F 26.6 °F 70% 30.11 in 10.0 mi East 4.6 mph - N/A   Clear
12:12 PM 35.6 °F 29.2 °F 26.6 °F 70% 30.10 in 10.0 mi East 8.1 mph - N/A   Clear
12:33 PM 37.4 °F 30.8 °F 26.6 °F 65% 30.09 in 10.0 mi ENE 9.2 mph - N/A   Clear
12:52 PM 37.4 °F 31.4 °F 26.6 °F 65% 30.09 in 10.0 mi East 8.1 mph - N/A   Clear
1:13 PM 37.4 °F 31.4 °F 28.4 °F 70% 30.08 in 10.0 mi East 8.1 mph - N/A   Clear
1:32 PM 37.4 °F 31.4 °F 28.4 °F 70% 30.08 in 10.0 mi East 8.1 mph - N/A   Clear
1:52 PM 37.4 °F 31.4 °F 28.4 °F 70% 30.07 in 10.0 mi East 8.1 mph - N/A   Scattered Clouds
2:13 PM 39.2 °F 35.9 °F 28.4 °F 65% 30.08 in 10.0 mi East 4.6 mph - N/A   Scattered Clouds
2:32 PM 39.2 °F 35.0 °F 28.4 °F 65% 30.07 in 10.0 mi East 5.8 mph - N/A   Clear
2:53 PM 39.2 °F 34.2 °F 28.4 °F 65% 30.06 in 10.0 mi East 6.9 mph - N/A   Scattered Clouds
3:13 PM 39.2 °F 33.6 °F 28.4 °F 65% 30.05 in 10.0 mi ENE 8.1 mph - N/A   Clear
3:32 PM 39.2 °F 33.6 °F 28.4 °F 65% 30.05 in 10.0 mi East 8.1 mph - N/A   Scattered Clouds
3:53 PM 39.2 °F 33.6 °F 28.4 °F 65% 30.05 in 10.0 mi ENE 8.1 mph - N/A   Scattered Clouds
4:12 PM 39.2 °F 33.0 °F 28.4 °F 65% 30.06 in 10.0 mi ENE 9.2 mph - N/A   Clear
4:32 PM 39.2 °F 33.0 °F 28.4 °F 65% 30.06 in 10.0 mi NE 9.2 mph - N/A   Scattered Clouds
4:53 PM 39.2 °F 33.6 °F 28.4 °F 65% 30.06 in 10.0 mi ENE 8.1 mph - N/A   Mostly Cloudy
5:12 PM 39.2 °F 33.6 °F 28.4 °F 65% 30.06 in 10.0 mi NE 8.1 mph - N/A   Overcast
5:32 PM 39.2 °F 34.2 °F 28.4 °F 65% 30.07 in 10.0 mi NE 6.9 mph - N/A   Overcast
5:53 PM 39.2 °F 33.6 °F 28.4 °F 65% 30.07 in 10.0 mi ENE 8.1 mph - N/A   Overcast
6:12 PM 39.2 °F 34.2 °F 28.4 °F 65% 30.07 in 10.0 mi ENE 6.9 mph - N/A   Overcast
6:32 PM 39.2 °F 32.5 °F 28.4 °F 65% 30.06 in 10.0 mi ENE 10.4 mph - N/A   Overcast
6:53 PM 39.2 °F 34.2 °F 28.4 °F 65% 30.07 in 10.0 mi ENE 6.9 mph - N/A   Overcast
7:12 PM 37.4 °F 32.1 °F 28.4 °F 70% 30.07 in 10.0 mi NE 6.9 mph - N/A   Overcast
7:32 PM 37.4 °F 32.8 °F 28.4 °F 70% 30.08 in 10.0 mi NE 5.8 mph - N/A   Overcast
7:53 PM 37.4 °F 31.4 °F 28.4 °F 70% 30.09 in 10.0 mi NE 8.1 mph - N/A   Overcast
8:12 PM 37.4 °F 32.1 °F 28.4 °F 70% 30.10 in 10.0 mi NE 6.9 mph - N/A   Overcast
8:32 PM 37.4 °F 32.1 °F 28.4 °F 70% 30.11 in 10.0 mi NNE 6.9 mph - N/A   Overcast
8:53 PM 37.4 °F 32.8 °F 28.4 °F 70% 30.12 in 10.0 mi North 5.8 mph - N/A   Overcast
9:32 PM 35.6 °F 29.2 °F 28.4 °F 75% 30.12 in 10.0 mi NNE 8.1 mph - N/A   Overcast
9:53 PM 35.6 °F 29.9 °F 28.4 °F 75% 30.12 in 10.0 mi NE 6.9 mph - N/A   Overcast
10:12 PM 35.6 °F 30.7 °F 28.4 °F 75% 30.12 in 10.0 mi ENE 5.8 mph - N/A   Overcast
10:32 PM 35.6 °F 29.2 °F 28.4 °F 75% 30.12 in 10.0 mi ENE 8.1 mph - N/A   Overcast
10:53 PM 35.6 °F 29.9 °F 28.4 °F 75% 30.12 in 10.0 mi ENE 6.9 mph - N/A   Overcast
11:12 PM 35.6 °F 31.7 °F 28.4 °F 75% 30.13 in 10.0 mi NE 4.6 mph - N/A   Overcast
11:32 PM 35.6 °F 32.8 °F 28.4 °F 75% 30.13 in 10.0 mi NE 3.5 mph - N/A   Overcast
11:53 PM 35.6 °F 31.7 °F 28.4 °F 75% 30.13 in 10.0 mi ENE 4.6 mph - N/A   Overcast